When you browse on this site, cookies collect data to enhance your experience and personalize the content and advertising you see.
Visit our Privacy Policy to learn more. By continuing to use the site, you agree to this use of cookies and data.
  • In Hungary
  • List of Countries
  • For 7 days
  • Water Temperature
  • Satellite Maps
  • Weather Map
  • News
  • Weather Widgets
  • user-avatar
    Login

    Hourly Weather Zawada

    Today, 24 January, Thursday

    Time Temperature Precipitation Wind Pressure Humidity
    00:00 -10°C° 0 mm 3 mps 735 mmHg 91%
    01:00 -10°C° 0 mm 3 mps 735 mmHg 90%
    02:00 -11°C° 0 mm 4 mps 736 mmHg 89%
    03:00 -11°C° 0 mm 4 mps 736 mmHg 89%
    04:00 -11°C° 0 mm 4 mps 736 mmHg 88%
    05:00 -11°C° 0 mm 4 mps 736 mmHg 88%
    06:00 -11°C° 0 mm 4 mps 736 mmHg 88%
    07:00 -11°C° 0 mm 4 mps 736 mmHg 89%
    08:00 -11°C° 0 mm 4 mps 737 mmHg 91%
    09:00 -11°C° 0 mm 4 mps 737 mmHg 89%
    10:00 -11°C° 0 mm 4 mps 738 mmHg 88%
    11:00 -11°C° 0 mm 5 mps 738 mmHg 86%
    12:00 -11°C° 0 mm 5 mps 738 mmHg 86%
    13:00 -11°C° 0 mm 5 mps 738 mmHg 85%
    14:00 -11°C° 0 mm 5 mps 738 mmHg 85%
    15:00 -11°C° 0 mm 5 mps 738 mmHg 86%
    16:00 -11°C° 0 mm 6 mps 738 mmHg 87%
    17:00 -11°C° 0 mm 6 mps 738 mmHg 88%
    18:00 -11°C° 0 mm 6 mps 738 mmHg 88%
    19:00 -12°C° 0 mm 6 mps 738 mmHg 88%
    20:00 -12°C° 0 mm 6 mps 738 mmHg 88%
    21:00 -12°C° 0 mm 6 mps 738 mmHg 88%
    22:00 -12°C° 0 mm 7 mps 738 mmHg 88%
    23:00 -12°C° 0 mm 7 mps 738 mmHg 88%

    Tomorrow, 25 January, Friday

    Time Temperature Precipitation Wind Pressure Humidity
    00:00 -13°C° 0.2 mm 7 mps 738 mmHg 89%
    01:00 -13°C° 0.2 mm 7 mps 738 mmHg 90%
    02:00 -13°C° 0.2 mm 7 mps 738 mmHg 91%
    03:00 -13°C° 0.3 mm 7 mps 738 mmHg 91%
    04:00 -13°C° 0.3 mm 7 mps 738 mmHg 91%
    05:00 -13°C° 0.3 mm 7 mps 738 mmHg 91%
    06:00 -12°C° 0.2 mm 6 mps 738 mmHg 91%
    07:00 -12°C° 0.2 mm 6 mps 737 mmHg 92%
    08:00 -12°C° 0.2 mm 6 mps 737 mmHg 92%
    09:00 -12°C° 0.2 mm 5 mps 737 mmHg 92%
    10:00 -12°C° 0.2 mm 5 mps 738 mmHg 91%
    11:00 -11°C° 0.2 mm 5 mps 738 mmHg 91%
    12:00 -10°C° 0.2 mm 4 mps 738 mmHg 91%
    13:00 -9°C° 0.2 mm 4 mps 738 mmHg 91%
    14:00 -8°C° 0.2 mm 3 mps 738 mmHg 90%
    15:00 -7°C° 0.1 mm 2 mps 738 mmHg 92%
    16:00 -7°C° 0.1 mm 2 mps 738 mmHg 93%
    17:00 -6°C° 0.1 mm 1 mps 738 mmHg 94%
    18:00 -6°C° 0 mm 1 mps 738 mmHg 95%
    19:00 -6°C° 0 mm 1 mps 738 mmHg 95%
    20:00 -6°C° 0 mm 1 mps 738 mmHg 96%
    21:00 -6°C° 0 mm 1 mps 738 mmHg 95%
    22:00 -6°C° 0 mm 1 mps 738 mmHg 95%
    23:00 -7°C° 0 mm 2 mps 738 mmHg 95%

    Day after tomorrow, 26 January, Saturday

    Time Temperature Precipitation Wind Pressure Humidity
    00:00 -7°C° 0 mm 2 mps 738 mmHg 94%
    01:00 -8°C° 0 mm 2 mps 737 mmHg 94%
    02:00 -8°C° 0 mm 2 mps 737 mmHg 94%
    03:00 -9°C° 0 mm 2 mps 736 mmHg 95%
    04:00 -9°C° 0 mm 2 mps 736 mmHg 95%
    05:00 -10°C° 0 mm 2 mps 736 mmHg 96%
    06:00 -10°C° 0 mm 2 mps 735 mmHg 96%
    07:00 -10°C° 0 mm 2 mps 735 mmHg 96%
    08:00 -12°C° 0 mm 2 mps 734 mmHg 97%
    09:00 -12°C° 0 mm 3 mps 734 mmHg 95%
    10:00 -9°C° 0 mm 3 mps 733 mmHg 93%
    11:00 -8°C° 0 mm 3 mps 733 mmHg 91%
    12:00 -8°C° 0.1 mm 3 mps 732 mmHg 91%
    13:00 -7°C° 0.1 mm 3 mps 731 mmHg 90%
    14:00 -6°C° 0.1 mm 3 mps 730 mmHg 90%
    15:00 -7°C° 0.3 mm 4 mps 729 mmHg 91%
    16:00 -7°C° 0.3 mm 4 mps 729 mmHg 92%
    17:00 -7°C° 0.3 mm 4 mps 728 mmHg 93%
    18:00 -5°C° 0.2 mm 4 mps 728 mmHg 93%
    19:00 -5°C° 0.2 mm 5 mps 728 mmHg 93%
    20:00 -5°C° 0.2 mm 6 mps 728 mmHg 92%
    21:00 -4°C° 0.1 mm 6 mps 728 mmHg 92%
    22:00 -4°C° 0.1 mm 6 mps 728 mmHg 92%
    23:00 -3°C° 0.1 mm 6 mps 728 mmHg 92%

    27 January, Sunday

    Time Temperature Precipitation Wind Pressure Humidity
    00:00 -2°C° 0.1 mm 5 mps 728 mmHg 92%
    01:00 -4°C° 0.1 mm 5 mps 729 mmHg 93%
    02:00 -3°C° 0.1 mm 4 mps 729 mmHg 93%
    03:00 -4°C° 0 mm 4 mps 729 mmHg 94%
    04:00 -5°C° 0 mm 3 mps 729 mmHg 94%
    05:00 -4°C° 0 mm 2 mps 729 mmHg 95%
    06:00 -5°C° 0 mm 2 mps 729 mmHg 95%
    07:00 -4°C° 0 mm 1 mps 729 mmHg 96%
    08:00 -6°C° 0 mm 1 mps 730 mmHg 96%
    09:00 -4°C° 0 mm 1 mps 730 mmHg 95%
    10:00 -3°C° 0 mm 1 mps 730 mmHg 95%
    11:00 -2°C° 0 mm 1 mps 730 mmHg 94%
    12:00 -3°C° 0 mm 2 mps 729 mmHg 94%
    13:00 -2°C° 0 mm 2 mps 729 mmHg 95%
    14:00 -1°C° 0 mm 3 mps 729 mmHg 95%
    15:00 -1°C° 0.2 mm 3 mps 729 mmHg 94%
    16:00 -1°C° 0.2 mm 3 mps 728 mmHg 94%
    17:00 -1°C° 0.2 mm 3 mps 728 mmHg 93%
    18:00 -1°C° 0.3 mm 3 mps 728 mmHg 93%
    19:00 -2°C° 0.3 mm 4 mps 728 mmHg 93%
    20:00 -1°C° 0.3 mm 4 mps 728 mmHg 92%
    21:00 -1°C° 0.2 mm 4 mps 728 mmHg 92%
    22:00 0°C° 0.2 mm 3 mps 728 mmHg 92%
    23:00 0°C° 0.2 mm 3 mps 727 mmHg 92%

    28 January, Monday

    Time Temperature Precipitation Wind Pressure Humidity
    00:00 -1°C° 0 mm 3 mps 727 mmHg 91%
    01:00 -1°C° 0 mm 3 mps 727 mmHg 91%
    02:00 -1°C° 0 mm 3 mps 727 mmHg 91%
    03:00 -2°C° 0.2 mm 4 mps 726 mmHg 90%
    04:00 -1°C° 0.2 mm 4 mps 726 mmHg 90%
    05:00 -1°C° 0.2 mm 4 mps 726 mmHg 90%
    06:00 -1°C° 0.1 mm 4 mps 726 mmHg 90%
    07:00 -1°C° 0.1 mm 4 mps 726 mmHg 89%
    08:00 -1°C° 0.1 mm 4 mps 725 mmHg 89%
    09:00 -1°C° 0 mm 4 mps 726 mmHg 91%
    10:00 0°C° 0 mm 4 mps 726 mmHg 93%
    11:00 0°C° 0 mm 4 mps 726 mmHg 96%
    12:00 +1°C° 0 mm 3 mps 726 mmHg 97%
    13:00 +1°C° 0 mm 3 mps 726 mmHg 98%
    14:00 +1°C° 0 mm 3 mps 725 mmHg 99%
    15:00 +1°C° 0 mm 3 mps 725 mmHg 98%
    16:00 +1°C° 0 mm 3 mps 725 mmHg 98%
    17:00 0°C° 0 mm 3 mps 725 mmHg 98%
    18:00 0°C° 0.1 mm 3 mps 725 mmHg 96%
    19:00 0°C° 0.1 mm 3 mps 725 mmHg 94%
    20:00 0°C° 0.1 mm 3 mps 725 mmHg 92%
    21:00 0°C° 1 mm 3 mps 725 mmHg 93%
    22:00 0°C° 1 mm 3 mps 725 mmHg 94%
    23:00 0°C° 1 mm 3 mps 725 mmHg 95%

    29 January, Tuesday

    Time Temperature Precipitation Wind Pressure Humidity
    00:00 0°C° 0.5 mm 3 mps 725 mmHg 95%
    01:00 -1°C° 0.5 mm 4 mps 725 mmHg 95%
    02:00 -1°C° 0.5 mm 4 mps 725 mmHg 96%
    03:00 -1°C° 0.1 mm 5 mps 725 mmHg 94%
    04:00 -1°C° 0.1 mm 5 mps 726 mmHg 93%
    05:00 -1°C° 0.1 mm 5 mps 726 mmHg 92%
    06:00 -2°C° 0 mm 6 mps 727 mmHg 92%
    07:00 -2°C° 0 mm 6 mps 728 mmHg 92%
    08:00 -2°C° 0 mm 6 mps 729 mmHg 92%
    09:00 -2°C° 0 mm 6 mps 730 mmHg 90%
    10:00 -2°C° 0 mm 7 mps 731 mmHg 88%
    11:00 -3°C° 0 mm 7 mps 732 mmHg 85%
    12:00 -3°C° 0 mm 7 mps 732 mmHg 84%
    13:00 -3°C° 0 mm 7 mps 733 mmHg 82%
    14:00 -3°C° 0 mm 6 mps 733 mmHg 80%
    15:00 -4°C° 0 mm 6 mps 734 mmHg 80%
    16:00 -4°C° 0 mm 5 mps 735 mmHg 81%
    17:00 -4°C° 0 mm 4 mps 735 mmHg 82%
    18:00 -5°C° 0 mm 4 mps 736 mmHg 84%
    19:00 -6°C° 0 mm 3 mps 736 mmHg 86%
    20:00 -6°C° 0 mm 2 mps 736 mmHg 88%
    21:00 -6°C° 0 mm 2 mps 736 mmHg 88%
    22:00 -6°C° 0 mm 2 mps 737 mmHg 88%
    23:00 -7°C° 0 mm 2 mps 737 mmHg 89%
    Show more